Location: Kerb�bon
(47.7970°N, 3.3487°W)
Time: 13:22:02
(UTC+00:00)

Cosmos 1733 Rocket - Pass Details

Date: 12 May 2021
Orbit: 603 x 628 km, 82.5° (Epoch: 18 June)

Event Time Altitude Azimuth Distance (km) Brightness Sun altitude
Rises 23:14:20 0° 344° (NNW) 2,872 8.0 -22.7°
Reaches altitude 10° 23:16:37 10° 339° (NNW) 1,961 6.7 -22.8°
Maximum altitude 23:20:44 44° 267° (W) 841 3.7 -22.9°
Enters shadow 23:21:13 42° 247° (WSW) 866 3.6 -22.9°
